Location: Ferchesar
(52.6477°N, 12.4298°E)
Time: 05:37:50
(UTC+02:00)

Transit 4A - Pass Details

Date: 01 March 2021
Orbit: 869 x 976 km, 66.8° (Epoch: 12 April)

Event Time Altitude Azimuth Distance (km) Brightness Sun altitude
Rises 19:03:07 0° 320° (NW) 3,602 11.7 -11.9°
Reaches altitude 10° 19:05:41 10° 320° (NW) 2,639 10.9 -12.3°
Maximum altitude 19:11:50 90° 18° (NNE) 914 7.9 -13.3°
Drops below altitude 10° 19:17:46 10° 143° (SE) 2,552 9.8 -14.2°
Enters shadow 19:18:14 - 143° (SE) 2,727 9.9 -14.2°
Sets 19:20:13 0° 143° (SE) 3,476 - -14.5°
